Location: Franzen
(48.6167°N, 15.3833°E)
Time: 04:38:38
(UTC+00:00)

Altair - Pass Details

Date: 05 August 2021
Orbit: 1501 x 1682 km, 47.2° (Epoch: 21 September)

Event Time Altitude Azimuth Distance (km) Brightness Sun altitude
Exits shadow 02:21:17 - 266° (W) 4,445 9.5 -11.2°
Reaches altitude 10° 02:23:31 10° 266° (W) 3,721 9.1 -11.0°
Maximum altitude 02:32:53 84° 181° (S) 1,525 7.5 -9.8°
Drops below altitude 10° 02:42:04 10° 94° (E) 3,653 10.2 -8.6°
Sets 02:45:04 0° 94° (E) 4,635 10.9 -8.2°
